Quillayute, WA
on Wednesday, November 21, 2012

Wednesday
Previous Day Next Day
Daily Summary
 ActualAverageRecord
Temperature
Mean Temperature °F 43°F  
Max Temperature 47°F 49°F 60°F (1979)
Min Temperature 36°F 37°F 20°F (1978)
Degree Days
Heating Degree Days 23 22  
Month to date heating degree days 420  
Since 1 July heating degree days 1510  
Cooling Degree Days 0 0  
Month to date cooling degree days 0  
Year to date cooling degree days 19  
Moisture
Dew Point 40°F   
Average Humidity 94    
Maximum Humidity 100    
Minimum Humidity 81    
Precipitation
Precipitation 0.86 in 0.54 in 1.60 in (1990)
Month to date precipitation 10.79  
Year to date precipitation 81.82  
Wind
Wind Speed 3 mph   
Max Wind Speed 10 mph   
Max Gust Speed 22 mph   
Visibility 4 miles   
Events Rain   

Key: T is trace of precipitation, MM is missing value
Source: NWS Daily Summary
Time(PST)TemperatureDew PointHumidity Pressure Visibility Wind DirectionWind SpeedGust SpeedPrecipitationEvents Conditions
12:08 AM 42.8°F 42.8°F 100% 29.51 in 1.8 miles ESE 3.5 mph - 0.02 in Rain Light Rain
12:18 AM 42.8°F 42.8°F 100% 29.52 in 2.0 miles Variable 5.8 mph - 0.04 in Rain Light Rain
12:26 AM 42.8°F 41.0°F 93% 29.52 in 3.0 miles East 8.1 mph - 0.06 in Rain Light Rain
12:45 AM 42.8°F 41.0°F 93% 29.53 in 2.5 miles East 4.6 mph - 0.09 in Rain Rain
12:53 AM 42.1°F 41.0°F 96% 29.54 in 2.5 miles Calm Calm - 0.11 in Rain Rain
1:36 AM 42.8°F 41.0°F 93% 29.53 in 2.0 miles SE 4.6 mph - 0.11 in Rain Rain
1:46 AM 41.0°F 39.2°F 93% 29.53 in 2.0 miles Variable 4.6 mph - 0.15 in Rain Rain
1:53 AM 41.0°F 39.0°F 93% 29.53 in 3.0 miles Variable 3.5 mph - 0.17 in Rain Light Rain
2:53 AM 37.9°F 37.0°F 97% 29.54 in 3.0 miles East 4.6 mph - 0.10 in Rain Light Rain
3:18 AM 37.4°F 37.4°F 100% 29.54 in 4.0 miles East 4.6 mph - 0.02 in Rain Light Rain
3:53 AM 37.9°F 37.0°F 97% 29.56 in 3.0 miles East 3.5 mph - 0.06 in Rain Rain
4:53 AM 37.9°F 37.0°F 97% 29.59 in 4.0 miles East 3.5 mph - 0.09 in Rain Light Rain
5:28 AM 37.4°F 37.4°F 100% 29.61 in 2.0 miles Calm Calm - 0.00 in Rain Light Rain
5:33 AM 37.4°F 37.4°F 100% 29.61 in 1.5 miles Calm Calm - 0.01 in Rain Light Rain
5:40 AM 37.4°F 37.4°F 100% 29.62 in 1.2 miles Calm Calm - 0.03 in Rain Rain
5:46 AM 37.4°F 37.4°F 100% 29.62 in 2.0 miles East 3.5 mph - 0.04 in Rain Light Rain
5:53 AM 39.0°F 37.9°F 96% 29.62 in 2.5 miles East 4.6 mph - 0.04 in Rain Light Rain
6:02 AM 39.2°F 39.2°F 100% 29.64 in 1.8 miles Calm Calm - 0.02 in Rain Rain
6:09 AM 39.2°F 39.2°F 100% 29.64 in 2.0 miles Calm Calm - 0.05 in Rain Rain
6:13 AM 39.2°F 39.2°F 100% 29.64 in 3.0 miles Calm Calm - 0.05 in Rain Light Rain
6:22 AM 39.2°F 37.4°F 93% 29.64 in 8.0 miles SE 3.5 mph - 0.05 in   Overcast
6:53 AM 39.0°F 37.9°F 96% 29.66 in 6.0 miles East 4.6 mph - 0.05 in Rain Light Rain
7:53 AM 39.0°F 37.9°F 96% 29.68 in 6.0 miles ENE 3.5 mph - 0.00 in   Mostly Cloudy
8:41 AM 41.0°F 39.2°F 93% 29.71 in 1.8 miles SSW 5.8 mph - 0.01 in Rain Light Rain
8:45 AM 41.0°F 39.2°F 93% 29.71 in 1.2 miles Variable 3.5 mph - 0.02 in Rain Light Rain
8:53 AM 41.0°F 39.0°F 93% 29.72 in 2.0 miles South 6.9 mph - 0.03 in Rain Light Rain
9:14 AM 42.8°F 39.2°F 87% 29.72 in 6.0 miles Variable 3.5 mph - 0.01 in Rain Light Rain
9:53 AM 42.1°F 39.9°F 92% 29.74 in 4.0 miles ESE 4.6 mph - 0.01 in Rain Light Rain
9:56 AM 42.8°F 39.2°F 87% 29.74 in 1.8 miles SE 5.8 mph - 0.00 in Rain Light Rain
10:04 AM 41.0°F 39.2°F 93% 29.74 in 1.0 miles SE 8.1 mph - 0.02 in Rain Rain
10:13 AM 41.0°F 39.2°F 93% 29.75 in 2.0 miles SE 5.8 mph - 0.03 in Rain Light Rain
10:28 AM 42.8°F 39.2°F 87% 29.77 in 1.2 miles West 6.9 mph - 0.05 in Rain Light Rain
10:39 AM 42.8°F 41.0°F 93% 29.78 in 1.5 miles Calm Calm - 0.07 in Rain Light Rain
10:53 AM 42.1°F 41.0°F 96% 29.79 in 1.8 miles Calm Calm - 0.08 in Rain Light Rain
11:11 AM 42.8°F 41.0°F 93% 29.80 in 2.5 miles ESE 3.5 mph - 0.03 in Rain Light Rain
11:14 AM 42.8°F 41.0°F 93% 29.80 in 3.0 miles Calm Calm - 0.03 in Rain Light Rain
11:35 AM 42.8°F 41.0°F 93% 29.80 in 2.0 miles Calm Calm - 0.03 in Rain Light Rain
11:40 AM 42.8°F 42.8°F 100% 29.81 in 4.0 miles Calm Calm - 0.03 in   Overcast
11:53 AM 43.0°F 42.1°F 97% 29.82 in 6.0 miles Calm Calm - 0.03 in   Overcast
12:53 PM 46.0°F 42.1°F 86% 29.86 in 6.0 miles West 6.9 mph - 0.01 in   Overcast
1:07 PM 46.4°F 41.0°F 81% 29.86 in 6.0 miles West 5.8 mph - N/A   Haze
1:23 PM 46.4°F 41.0°F 81% 29.88 in 2.5 miles West 6.9 mph - 0.00 in Rain Light Rain
1:30 PM 44.6°F 42.8°F 93% 29.88 in 6.0 miles West 5.8 mph - 0.00 in   Overcast
1:37 PM 44.6°F 41.0°F 87% 29.89 in 6.0 miles WSW 6.9 mph - 0.00 in   Overcast
1:53 PM 46.0°F 42.1°F 86% 29.91 in 6.0 miles WSW 4.6 mph - 0.00 in   Overcast
2:08 PM 46.4°F 42.8°F 87% 29.92 in 5.0 miles Variable 5.8 mph - 0.00 in Rain Light Rain
2:29 PM 44.6°F 41.0°F 87% 29.94 in 3.0 miles WNW 10.4 mph 17.3 mph 0.00 in Rain Light Rain
2:41 PM 44.6°F 39.2°F 81% 29.95 in 1.8 miles WNW 6.9 mph - 0.01 in Rain Light Rain
2:51 PM 44.6°F 42.8°F 93% 29.95 in 3.0 miles WNW 4.6 mph - 0.02 in Rain Light Rain
2:53 PM 45.0°F 42.1°F 90% 29.96 in 3.0 miles WNW 3.5 mph - 0.02 in Rain Light Rain
3:02 PM 44.6°F 41.0°F 87% 29.97 in 1.8 miles West 4.6 mph - 0.01 in Rain Light Rain
3:09 PM 44.6°F 41.0°F 87% 29.97 in 3.0 miles Calm Calm - 0.01 in Rain Light Rain
3:37 PM 42.8°F 42.8°F 100% 30.00 in 1.8 miles SW 3.5 mph - 0.03 in Rain Light Rain
3:53 PM 43.0°F 41.0°F 93% 30.01 in 2.0 miles Calm Calm - 0.05 in Rain Light Rain
4:02 PM 44.6°F 41.0°F 87% 30.02 in 5.0 miles Calm Calm - 0.00 in Rain Light Rain
4:09 PM 42.8°F 39.2°F 87% 30.02 in 6.0 miles Calm Calm - 0.00 in   Mostly Cloudy
4:51 PM 41.0°F 41.0°F 100% 30.05 in 5.0 miles Calm Calm - 0.00 in   Mostly Cloudy
4:53 PM 41.0°F 41.0°F 100% 30.06 in 5.0 miles Calm Calm - 0.00 in   Mostly Cloudy
5:01 PM 41.0°F 39.2°F 93% 30.06 in 5.0 miles SE 3.5 mph - N/A   Scattered Clouds
5:53 PM 37.9°F 37.9°F 100% 30.10 in 6.0 miles Calm Calm - N/A   Scattered Clouds
6:53 PM 37.0°F 37.0°F 100% 30.13 in 7.0 miles Calm Calm - N/A   Scattered Clouds
7:53 PM 37.0°F 36.0°F 96% 30.17 in 7.0 miles ENE 5.8 mph - N/A   Clear
8:15 PM 37.4°F 37.4°F 100% 30.18 in 2.5 miles Calm Calm - 0.02 in Rain Light Rain
8:22 PM 37.4°F 37.4°F 100% 30.18 in 6.0 miles North 9.2 mph - 0.02 in Rain Light Rain
8:53 PM 37.9°F 37.0°F 97% 30.19 in 7.0 miles East 5.8 mph - 0.02 in   Mostly Cloudy
9:53 PM 37.0°F 36.0°F 96% 30.23 in 8.0 miles East 3.5 mph - N/A   Clear
10:53 PM 37.0°F 36.0°F 96% 30.24 in 7.0 miles ENE 5.8 mph - N/A   Clear
11:53 PM 37.9°F 36.0°F 93% 30.25 in 8.0 miles ENE 4.6 mph - N/A   Clear
Moon Phase
Nov. 21 Nov. 28 Dec. 06 Dec. 13 Dec. 20
Sunrise:07:34 AM (PST) Moon Rise:01:18 PM (PST)
Sunset:04:34 PM (PST) Moon Set:12:31 AM (PST)

Copyright © 2014 The Weather Underground, Inc.